Year,Month,Day,Hour,Minute,Value (Times are PST for temperature in C)
2012,06,03,00,00,10.90
2012,06,03,00,01,10.90
2012,06,03,00,02,10.90
2012,06,03,00,03,10.90
2012,06,03,00,04,10.90
2012,06,03,00,05,10.90
2012,06,03,00,06,10.80
2012,06,03,00,07,10.80
2012,06,03,00,08,10.80
2012,06,03,00,09,10.80
2012,06,03,00,10,10.80
2012,06,03,00,11,10.80
2012,06,03,00,12,10.80
2012,06,03,00,13,10.80
2012,06,03,00,14,10.80
2012,06,03,00,15,10.80
2012,06,03,00,16,10.90
2012,06,03,00,17,10.90
2012,06,03,00,18,10.80
2012,06,03,00,19,10.80
2012,06,03,00,20,10.80
2012,06,03,00,21,10.80
2012,06,03,00,22,10.80
2012,06,03,00,23,10.80
2012,06,03,00,24,10.80
2012,06,03,00,25,10.80
2012,06,03,00,26,10.80
2012,06,03,00,27,10.80
2012,06,03,00,28,10.90
2012,06,03,00,29,10.90
2012,06,03,00,30,10.90
2012,06,03,00,31,10.90
2012,06,03,00,32,10.90
2012,06,03,00,33,10.90
2012,06,03,00,34,10.90
2012,06,03,00,35,10.90
2012,06,03,00,36,10.80
2012,06,03,00,37,10.80
2012,06,03,00,38,10.80
2012,06,03,00,39,10.80
2012,06,03,00,40,10.80
2012,06,03,00,41,10.80
2012,06,03,00,42,10.80
2012,06,03,00,43,10.80
2012,06,03,00,44,10.80
2012,06,03,00,45,10.80
2012,06,03,00,46,10.80
2012,06,03,00,47,10.80
2012,06,03,00,48,10.80
2012,06,03,00,49,10.80
2012,06,03,00,50,10.80
2012,06,03,00,51,10.80
2012,06,03,00,52,10.80
2012,06,03,00,53,10.80
2012,06,03,00,54,10.80
2012,06,03,00,55,10.80
2012,06,03,00,56,10.80
2012,06,03,00,57,10.80
2012,06,03,00,58,10.80
2012,06,03,00,59,10.80
2012,06,03,01,00,10.80
2012,06,03,01,01,10.80
2012,06,03,01,02,10.80
2012,06,03,01,03,10.70
2012,06,03,01,04,10.70
2012,06,03,01,05,10.70
2012,06,03,01,06,10.70
2012,06,03,01,07,10.70
2012,06,03,01,08,10.70
2012,06,03,01,09,10.70
2012,06,03,01,10,10.70
2012,06,03,01,11,10.70
2012,06,03,01,12,10.70
2012,06,03,01,13,10.70
2012,06,03,01,14,10.70
2012,06,03,01,15,10.70
2012,06,03,01,16,10.70
2012,06,03,01,17,10.70
2012,06,03,01,18,10.60
2012,06,03,01,19,10.60
2012,06,03,01,20,10.60
2012,06,03,01,21,10.60
2012,06,03,01,22,10.60
2012,06,03,01,23,10.60
2012,06,03,01,24,10.60
2012,06,03,01,25,10.60
2012,06,03,01,26,10.60
2012,06,03,01,27,10.60
2012,06,03,01,28,10.60
2012,06,03,01,29,10.60
2012,06,03,01,30,10.60
2012,06,03,01,31,10.60
2012,06,03,01,32,10.60
2012,06,03,01,33,10.60
2012,06,03,01,34,10.60
2012,06,03,01,35,10.50
2012,06,03,01,36,10.40
2012,06,03,01,37,10.40
2012,06,03,01,38,10.40
2012,06,03,01,39,10.40
2012,06,03,01,40,10.40
2012,06,03,01,41,10.40
2012,06,03,01,42,10.40
2012,06,03,01,43,10.40
2012,06,03,01,44,10.40
2012,06,03,01,45,10.30
2012,06,03,01,46,10.30
2012,06,03,01,47,10.30
2012,06,03,01,48,10.30
2012,06,03,01,49,10.30
2012,06,03,01,50,10.30
2012,06,03,01,51,10.30
2012,06,03,01,52,10.30
2012,06,03,01,53,10.30
2012,06,03,01,54,10.30
2012,06,03,01,55,10.30
2012,06,03,01,56,10.30
2012,06,03,01,57,10.30
2012,06,03,01,58,10.30
2012,06,03,01,59,10.30
2012,06,03,02,00,10.30
2012,06,03,02,01,10.30
2012,06,03,02,02,10.30
2012,06,03,02,03,10.30
2012,06,03,02,04,10.30
2012,06,03,02,05,10.30
2012,06,03,02,06,10.30
2012,06,03,02,07,10.30
2012,06,03,02,08,10.30
2012,06,03,02,09,10.30
2012,06,03,02,10,10.30
2012,06,03,02,11,10.30
2012,06,03,02,12,10.30
2012,06,03,02,13,10.30
2012,06,03,02,14,10.20
2012,06,03,02,15,10.20
2012,06,03,02,16,10.20
2012,06,03,02,17,10.20
2012,06,03,02,18,10.20
2012,06,03,02,19,10.20
2012,06,03,02,20,10.20
2012,06,03,02,21,10.20
2012,06,03,02,22,10.10
2012,06,03,02,23,10.10
2012,06,03,02,24,10.10
2012,06,03,02,25,10.10
2012,06,03,02,26,10.10
2012,06,03,02,27,10.10
2012,06,03,02,28,10.10
2012,06,03,02,29,10.10
2012,06,03,02,30,10.10
2012,06,03,02,31,10.10
2012,06,03,02,32,10.10
2012,06,03,02,33,10.10
2012,06,03,02,34,10.10
2012,06,03,02,35,10.10
2012,06,03,02,36,10.00
2012,06,03,02,37,9.90
2012,06,03,02,38,9.90
2012,06,03,02,39,9.90
2012,06,03,02,40,9.90
2012,06,03,02,41,9.90
2012,06,03,02,42,9.90
2012,06,03,02,43,9.90
2012,06,03,02,44,9.90
2012,06,03,02,45,9.90
2012,06,03,02,46,9.90
2012,06,03,02,47,9.90
2012,06,03,02,48,9.90
2012,06,03,02,49,9.90
2012,06,03,02,50,9.90
2012,06,03,02,51,9.90
2012,06,03,02,52,9.90
2012,06,03,02,53,9.90
2012,06,03,02,54,9.90
2012,06,03,02,55,9.90
2012,06,03,02,56,9.80
2012,06,03,02,57,9.80
2012,06,03,02,58,9.80
2012,06,03,02,59,9.80
2012,06,03,03,00,9.80
2012,06,03,03,01,9.80
2012,06,03,03,02,9.80
2012,06,03,03,03,9.80
2012,06,03,03,04,9.80
2012,06,03,03,05,9.80
2012,06,03,03,06,9.80
2012,06,03,03,07,9.80
2012,06,03,03,08,9.80
2012,06,03,03,09,9.80
2012,06,03,03,10,9.80
2012,06,03,03,11,9.80
2012,06,03,03,12,9.80
2012,06,03,03,13,9.80
2012,06,03,03,14,9.80
2012,06,03,03,15,9.80
2012,06,03,03,16,9.80
2012,06,03,03,17,9.80
2012,06,03,03,18,9.80
2012,06,03,03,19,9.80
2012,06,03,03,20,9.80
2012,06,03,03,21,9.80
2012,06,03,03,22,9.80
2012,06,03,03,23,9.70
2012,06,03,03,24,9.70
2012,06,03,03,25,9.70
2012,06,03,03,26,9.70
2012,06,03,03,27,9.70
2012,06,03,03,28,9.70
2012,06,03,03,29,9.70
2012,06,03,03,30,9.70
2012,06,03,03,31,9.70
2012,06,03,03,32,9.70
2012,06,03,03,33,9.70
2012,06,03,03,34,9.70
2012,06,03,03,35,9.70
2012,06,03,03,36,9.70
2012,06,03,03,37,9.70
2012,06,03,03,38,9.70
2012,06,03,03,39,9.70
2012,06,03,03,40,9.60
2012,06,03,03,41,9.60
2012,06,03,03,42,9.60
2012,06,03,03,43,9.60
2012,06,03,03,44,9.60
2012,06,03,03,45,9.60
2012,06,03,03,46,9.60
2012,06,03,03,47,9.60
2012,06,03,03,48,9.60
2012,06,03,03,49,9.50
2012,06,03,03,50,9.50
2012,06,03,03,51,9.50
2012,06,03,03,52,9.50
2012,06,03,03,53,9.50
2012,06,03,03,54,9.50
2012,06,03,03,55,9.50
2012,06,03,03,56,9.50
2012,06,03,03,57,9.50
2012,06,03,03,58,9.50
2012,06,03,03,59,9.50
2012,06,03,04,00,9.50
2012,06,03,04,01,9.50
2012,06,03,04,02,9.50
2012,06,03,04,03,9.50
2012,06,03,04,04,9.50
2012,06,03,04,05,9.50
2012,06,03,04,06,9.50
2012,06,03,04,07,9.50
2012,06,03,04,08,9.40
2012,06,03,04,09,9.40
2012,06,03,04,10,9.40
2012,06,03,04,11,9.40
2012,06,03,04,12,9.40
2012,06,03,04,13,9.40
2012,06,03,04,14,9.40
2012,06,03,04,15,9.40
2012,06,03,04,16,9.30
2012,06,03,04,17,9.30
2012,06,03,04,18,9.30
2012,06,03,04,19,9.30
2012,06,03,04,20,9.30
2012,06,03,04,21,9.30
2012,06,03,04,22,9.30
2012,06,03,04,23,9.20
2012,06,03,04,24,9.20
2012,06,03,04,25,9.20
2012,06,03,04,26,9.20
2012,06,03,04,27,9.20
2012,06,03,04,28,9.20
2012,06,03,04,29,9.20
2012,06,03,04,30,9.20
2012,06,03,04,31,9.20
2012,06,03,04,32,9.20
2012,06,03,04,33,9.20
2012,06,03,04,34,9.20
2012,06,03,04,35,9.20
2012,06,03,04,36,9.20
2012,06,03,04,37,9.20
2012,06,03,04,38,9.20
2012,06,03,04,39,9.20
2012,06,03,04,40,9.20
2012,06,03,04,41,9.20
2012,06,03,04,42,9.20
2012,06,03,04,43,9.10
2012,06,03,04,44,9.10
2012,06,03,04,45,9.10
2012,06,03,04,46,9.10
2012,06,03,04,47,9.10
2012,06,03,04,48,9.10
2012,06,03,04,49,9.00
2012,06,03,04,50,9.00
2012,06,03,04,51,9.00
2012,06,03,04,52,9.00
2012,06,03,04,53,9.00
2012,06,03,04,54,9.00
2012,06,03,04,55,9.00
2012,06,03,04,56,8.90
2012,06,03,04,57,8.90
2012,06,03,04,58,8.90
2012,06,03,04,59,8.90
2012,06,03,05,00,8.90
2012,06,03,05,01,8.90
2012,06,03,05,02,8.90
2012,06,03,05,03,8.90
2012,06,03,05,04,8.90
2012,06,03,05,05,8.80
2012,06,03,05,06,8.80
2012,06,03,05,07,8.80
2012,06,03,05,08,8.80
2012,06,03,05,09,8.80
2012,06,03,05,10,8.80
2012,06,03,05,11,8.80
2012,06,03,05,12,8.80
2012,06,03,05,13,8.80
2012,06,03,05,14,8.90
2012,06,03,05,15,8.90
2012,06,03,05,16,8.90
2012,06,03,05,17,8.90
2012,06,03,05,18,8.90
2012,06,03,05,19,8.90
2012,06,03,05,20,8.90
2012,06,03,05,21,8.90
2012,06,03,05,22,8.90
2012,06,03,05,23,8.90
2012,06,03,05,24,8.80
2012,06,03,05,25,8.80
2012,06,03,05,26,8.80
2012,06,03,05,27,8.80
2012,06,03,05,28,8.80
2012,06,03,05,29,8.80
2012,06,03,05,30,8.80
2012,06,03,05,31,8.80
2012,06,03,05,32,8.80
2012,06,03,05,33,8.80
2012,06,03,05,34,8.80
2012,06,03,05,35,8.90
2012,06,03,05,36,8.90
2012,06,03,05,37,8.90
2012,06,03,05,38,8.90
2012,06,03,05,39,8.90
2012,06,03,05,40,8.90
2012,06,03,05,41,8.90
2012,06,03,05,42,8.90
2012,06,03,05,43,8.90
2012,06,03,05,44,8.90
2012,06,03,05,45,9.00
2012,06,03,05,46,9.00
2012,06,03,05,47,8.90
2012,06,03,05,48,8.90
2012,06,03,05,49,8.90
2012,06,03,05,50,8.90
2012,06,03,05,51,8.90
2012,06,03,05,52,8.90
2012,06,03,05,53,8.90
2012,06,03,05,54,8.90
2012,06,03,05,55,8.90
2012,06,03,05,56,8.90
2012,06,03,05,57,8.90
2012,06,03,05,58,8.80
2012,06,03,05,59,8.80
2012,06,03,06,00,8.80
2012,06,03,06,01,8.80
2012,06,03,06,02,8.80
2012,06,03,06,03,8.80
2012,06,03,06,04,8.80
2012,06,03,06,05,8.80
2012,06,03,06,06,8.80
2012,06,03,06,07,8.80
2012,06,03,06,08,8.80
2012,06,03,06,09,8.80
2012,06,03,06,10,8.80
2012,06,03,06,11,8.80
2012,06,03,06,12,8.80
2012,06,03,06,13,8.80
2012,06,03,06,14,8.80
2012,06,03,06,15,8.80
2012,06,03,06,16,8.80
2012,06,03,06,17,8.80
2012,06,03,06,18,8.80
2012,06,03,06,19,8.90
2012,06,03,06,20,8.90
2012,06,03,06,21,8.90
2012,06,03,06,22,8.90
2012,06,03,06,23,8.90
2012,06,03,06,24,9.00
2012,06,03,06,25,9.00
2012,06,03,06,26,9.00
2012,06,03,06,27,9.00
2012,06,03,06,28,9.10
2012,06,03,06,29,9.10
2012,06,03,06,30,9.10
2012,06,03,06,31,9.10
2012,06,03,06,32,9.10
2012,06,03,06,33,9.10
2012,06,03,06,34,9.20
2012,06,03,06,35,9.20
2012,06,03,06,36,9.20
2012,06,03,06,37,9.20
2012,06,03,06,38,9.20
2012,06,03,06,39,9.20
2012,06,03,06,40,9.20
2012,06,03,06,41,9.20
2012,06,03,06,42,9.20
2012,06,03,06,43,9.20
2012,06,03,06,44,9.20
2012,06,03,06,45,9.20
2012,06,03,06,46,9.20
2012,06,03,06,47,9.30
2012,06,03,06,48,9.30
2012,06,03,06,49,9.30
2012,06,03,06,50,9.30
2012,06,03,06,51,9.30
2012,06,03,06,52,9.30
2012,06,03,06,53,9.30
2012,06,03,06,54,9.30
2012,06,03,06,55,9.40
2012,06,03,06,56,9.40
2012,06,03,06,57,9.40
2012,06,03,06,58,9.40
2012,06,03,06,59,9.40
2012,06,03,07,00,9.50
2012,06,03,07,01,9.50
2012,06,03,07,02,9.50
2012,06,03,07,03,9.50
2012,06,03,07,04,9.60
2012,06,03,07,05,9.60
2012,06,03,07,06,9.60
2012,06,03,07,07,9.60
2012,06,03,07,08,9.70
2012,06,03,07,09,9.70
2012,06,03,07,10,9.70
2012,06,03,07,11,9.70
2012,06,03,07,12,9.70
2012,06,03,07,13,9.70
2012,06,03,07,14,9.70
2012,06,03,07,15,9.70
2012,06,03,07,16,9.80
2012,06,03,07,17,9.80
2012,06,03,07,18,9.80
2012,06,03,07,19,9.80
2012,06,03,07,20,9.80
2012,06,03,07,21,9.80
2012,06,03,07,22,9.80
2012,06,03,07,23,9.80
2012,06,03,07,24,9.80
2012,06,03,07,25,9.80
2012,06,03,07,26,9.90
2012,06,03,07,27,9.90
2012,06,03,07,28,9.90
2012,06,03,07,29,9.90
2012,06,03,07,30,9.90
2012,06,03,07,31,9.90
2012,06,03,07,32,9.90
2012,06,03,07,33,9.90
2012,06,03,07,34,9.90
2012,06,03,07,35,9.90
2012,06,03,07,36,9.90
2012,06,03,07,37,10.00
2012,06,03,07,38,10.10
2012,06,03,07,39,10.10
2012,06,03,07,40,10.10
2012,06,03,07,41,10.10
2012,06,03,07,42,10.10
2012,06,03,07,43,10.00
2012,06,03,07,44,9.90
2012,06,03,07,45,10.00
2012,06,03,07,46,10.10
2012,06,03,07,47,10.10
2012,06,03,07,48,10.10
2012,06,03,07,49,10.10
2012,06,03,07,50,10.20
2012,06,03,07,51,10.20
2012,06,03,07,52,10.30
2012,06,03,07,53,10.40
2012,06,03,07,54,10.40
2012,06,03,07,55,10.40
2012,06,03,07,56,10.40
2012,06,03,07,57,10.40
2012,06,03,07,58,10.40
2012,06,03,07,59,10.40
2012,06,03,08,00,10.50
2012,06,03,08,01,10.60
2012,06,03,08,02,10.60
2012,06,03,08,03,10.60
2012,06,03,08,04,10.60
2012,06,03,08,05,10.60
2012,06,03,08,06,10.60
2012,06,03,08,07,10.60
2012,06,03,08,08,10.60
2012,06,03,08,09,10.70
2012,06,03,08,10,10.70
2012,06,03,08,11,10.70
2012,06,03,08,12,10.70
2012,06,03,08,13,10.80
2012,06,03,08,14,10.80
2012,06,03,08,15,10.90
2012,06,03,08,16,10.90
2012,06,03,08,17,10.90
2012,06,03,08,18,10.90
2012,06,03,08,19,11.00
2012,06,03,08,20,11.10
2012,06,03,08,21,11.10
2012,06,03,08,22,11.10
2012,06,03,08,23,11.10
2012,06,03,08,24,11.10
2012,06,03,08,25,11.10
2012,06,03,08,26,11.00
2012,06,03,08,27,10.90
2012,06,03,08,28,10.90
2012,06,03,08,29,10.90
2012,06,03,08,30,10.90
2012,06,03,08,31,10.90
2012,06,03,08,32,10.90
2012,06,03,08,33,10.90
2012,06,03,08,34,11.00
2012,06,03,08,35,11.10
2012,06,03,08,36,11.10
2012,06,03,08,37,11.20
2012,06,03,08,38,11.30
2012,06,03,08,39,11.40
2012,06,03,08,40,11.40
2012,06,03,08,41,11.50
2012,06,03,08,42,11.60
2012,06,03,08,43,11.70
2012,06,03,08,44,11.70
2012,06,03,08,45,11.80
2012,06,03,08,46,11.80
2012,06,03,08,47,11.80
2012,06,03,08,48,11.80
2012,06,03,08,49,11.70
2012,06,03,08,50,11.70
2012,06,03,08,51,11.70
2012,06,03,08,52,11.60
2012,06,03,08,53,11.60
2012,06,03,08,54,11.60
2012,06,03,08,55,11.60
2012,06,03,08,56,11.60
2012,06,03,08,57,11.60
2012,06,03,08,58,11.60
2012,06,03,08,59,11.60
2012,06,03,09,00,11.60
2012,06,03,09,01,11.60
2012,06,03,09,02,11.70
2012,06,03,09,03,11.70
2012,06,03,09,04,11.70
2012,06,03,09,05,11.70
2012,06,03,09,06,11.70
2012,06,03,09,07,11.80
2012,06,03,09,08,11.80
2012,06,03,09,09,11.80
2012,06,03,09,10,11.80
2012,06,03,09,11,11.80
2012,06,03,09,12,11.80
2012,06,03,09,13,11.90
2012,06,03,09,14,12.00
2012,06,03,09,15,12.10
2012,06,03,09,16,12.20
2012,06,03,09,17,12.30
2012,06,03,09,18,12.30
2012,06,03,09,19,12.30
2012,06,03,09,20,12.30
2012,06,03,09,21,12.30
2012,06,03,09,22,12.30
2012,06,03,09,23,12.40
2012,06,03,09,24,12.50
2012,06,03,09,25,12.50
2012,06,03,09,26,12.50
2012,06,03,09,27,12.50
2012,06,03,09,28,12.50
2012,06,03,09,29,12.60
2012,06,03,09,30,12.40
2012,06,03,09,31,12.40
2012,06,03,09,32,12.40
2012,06,03,09,33,12.40
2012,06,03,09,34,12.40
2012,06,03,09,35,12.50
2012,06,03,09,36,12.60
2012,06,03,09,37,12.60
2012,06,03,09,38,12.60
2012,06,03,09,39,12.60
2012,06,03,09,40,12.70
2012,06,03,09,41,12.80
2012,06,03,09,42,12.80
2012,06,03,09,43,12.80
2012,06,03,09,44,12.90
2012,06,03,09,45,12.90
2012,06,03,09,46,12.90
2012,06,03,09,47,12.90
2012,06,03,09,48,13.00
2012,06,03,09,49,13.10
2012,06,03,09,50,13.00
2012,06,03,09,51,13.00
2012,06,03,09,52,13.10
2012,06,03,09,53,13.20
2012,06,03,09,54,13.30
2012,06,03,09,55,13.40
2012,06,03,09,56,13.50
2012,06,03,09,57,13.60
2012,06,03,09,58,13.70
2012,06,03,09,59,13.70
2012,06,03,10,00,13.60
2012,06,03,10,01,13.60
2012,06,03,10,02,13.50
2012,06,03,10,03,13.30
2012,06,03,10,04,13.30
2012,06,03,10,05,13.30
2012,06,03,10,06,13.20
2012,06,03,10,07,13.10
2012,06,03,10,08,13.00
2012,06,03,10,09,13.00
2012,06,03,10,10,13.00
2012,06,03,10,11,13.00
2012,06,03,10,12,12.90
2012,06,03,10,13,13.00
2012,06,03,10,14,13.00
2012,06,03,10,15,13.20
2012,06,03,10,16,13.30
2012,06,03,10,17,13.20
2012,06,03,10,18,13.10
2012,06,03,10,19,13.00
2012,06,03,10,20,13.10
2012,06,03,10,21,13.30
2012,06,03,10,22,13.40
2012,06,03,10,23,13.50
2012,06,03,10,24,13.70
2012,06,03,10,25,13.80
2012,06,03,10,26,13.80
2012,06,03,10,27,13.90
2012,06,03,10,28,13.90
2012,06,03,10,29,13.90
2012,06,03,10,30,13.80
2012,06,03,10,31,13.90
2012,06,03,10,32,13.80
2012,06,03,10,33,13.90
2012,06,03,10,34,13.90
2012,06,03,10,35,14.00
2012,06,03,10,36,14.00
2012,06,03,10,37,14.00
2012,06,03,10,38,13.90
2012,06,03,10,39,14.00
2012,06,03,10,40,14.00
2012,06,03,10,41,14.00
2012,06,03,10,42,13.90
2012,06,03,10,43,13.80
2012,06,03,10,44,13.90
2012,06,03,10,45,13.90
2012,06,03,10,46,13.90
2012,06,03,10,47,13.80
2012,06,03,10,48,13.70
2012,06,03,10,49,13.70
2012,06,03,10,50,13.70
2012,06,03,10,51,13.70
2012,06,03,10,52,13.70
2012,06,03,10,53,13.80
2012,06,03,10,54,13.90
2012,06,03,10,55,14.00
2012,06,03,10,56,14.00
2012,06,03,10,57,14.10
2012,06,03,10,58,14.10
2012,06,03,10,59,14.00
2012,06,03,11,00,14.00
2012,06,03,11,01,14.00
2012,06,03,11,02,14.00
2012,06,03,11,03,14.10
2012,06,03,11,04,14.20
2012,06,03,11,05,14.20
2012,06,03,11,06,14.20
2012,06,03,11,07,14.30
2012,06,03,11,08,14.30
2012,06,03,11,09,14.30
2012,06,03,11,10,14.30
2012,06,03,11,11,14.30
2012,06,03,11,12,14.30
2012,06,03,11,13,14.40
2012,06,03,11,14,14.40
2012,06,03,11,15,14.40
2012,06,03,11,16,14.40
2012,06,03,11,17,14.40
2012,06,03,11,18,14.30
2012,06,03,11,19,14.30
2012,06,03,11,20,14.30
2012,06,03,11,21,14.20
2012,06,03,11,22,14.20
2012,06,03,11,23,14.20
2012,06,03,11,24,14.20
2012,06,03,11,25,14.10
2012,06,03,11,26,14.00
2012,06,03,11,27,14.00
2012,06,03,11,28,13.90
2012,06,03,11,29,13.90
2012,06,03,11,30,13.80
2012,06,03,11,31,13.80
2012,06,03,11,32,13.80
2012,06,03,11,33,13.80
2012,06,03,11,34,13.90
2012,06,03,11,35,13.80
2012,06,03,11,36,13.80
2012,06,03,11,37,13.90
2012,06,03,11,38,14.00
2012,06,03,11,39,14.00
2012,06,03,11,40,14.10
2012,06,03,11,41,14.00
2012,06,03,11,42,13.90
2012,06,03,11,43,13.80
2012,06,03,11,44,13.70
2012,06,03,11,45,13.70
2012,06,03,11,46,13.70
2012,06,03,11,47,13.70
2012,06,03,11,48,13.60
2012,06,03,11,49,13.60
2012,06,03,11,50,13.60
2012,06,03,11,51,13.60
2012,06,03,11,52,13.60
2012,06,03,11,53,13.70
2012,06,03,11,54,13.70
2012,06,03,11,55,13.80
2012,06,03,11,56,13.80
2012,06,03,11,57,13.80
2012,06,03,11,58,13.90
2012,06,03,11,59,13.90
2012,06,03,12,00,13.90
2012,06,03,12,01,13.90
2012,06,03,12,02,13.90
2012,06,03,12,03,13.90
2012,06,03,12,04,14.00
2012,06,03,12,05,14.00
2012,06,03,12,06,14.00
2012,06,03,12,07,14.00
2012,06,03,12,08,14.10
2012,06,03,12,09,14.10
2012,06,03,12,10,14.10
2012,06,03,12,11,14.10
2012,06,03,12,12,14.10
2012,06,03,12,13,14.20
2012,06,03,12,14,14.20
2012,06,03,12,15,14.20
2012,06,03,12,16,14.20
2012,06,03,12,17,14.20
2012,06,03,12,18,14.20
2012,06,03,12,19,14.30
2012,06,03,12,20,14.30
2012,06,03,12,21,14.40
2012,06,03,12,22,14.40
2012,06,03,12,23,14.40
2012,06,03,12,24,14.40
2012,06,03,12,25,14.40
2012,06,03,12,26,14.30
2012,06,03,12,27,14.30
2012,06,03,12,28,14.20
2012,06,03,12,29,14.10
2012,06,03,12,30,14.10
2012,06,03,12,31,14.10
2012,06,03,12,32,14.10
2012,06,03,12,33,14.20
2012,06,03,12,34,14.20
2012,06,03,12,35,14.20
2012,06,03,12,36,14.30
2012,06,03,12,37,14.30
2012,06,03,12,38,14.40
2012,06,03,12,39,14.50
2012,06,03,12,40,14.60
2012,06,03,12,41,14.60
2012,06,03,12,42,14.60
2012,06,03,12,43,14.50
2012,06,03,12,44,14.50
2012,06,03,12,45,14.50
2012,06,03,12,46,14.50
2012,06,03,12,47,14.50
2012,06,03,12,48,14.60
2012,06,03,12,49,14.50
2012,06,03,12,50,14.50
2012,06,03,12,51,14.40
2012,06,03,12,52,14.40
2012,06,03,12,53,14.30
2012,06,03,12,54,14.20
2012,06,03,12,55,14.10
2012,06,03,12,56,14.10
2012,06,03,12,57,14.10
2012,06,03,12,58,14.00
2012,06,03,12,59,14.00
2012,06,03,13,00,14.00
2012,06,03,13,01,13.90
2012,06,03,13,02,13.90
2012,06,03,13,03,13.90
2012,06,03,13,04,13.90
2012,06,03,13,05,13.90
2012,06,03,13,06,13.90
2012,06,03,13,07,13.90
2012,06,03,13,08,13.90
2012,06,03,13,09,14.00
2012,06,03,13,10,14.00
2012,06,03,13,11,14.10
2012,06,03,13,12,14.00
2012,06,03,13,13,14.00
2012,06,03,13,14,14.00
2012,06,03,13,15,13.90
2012,06,03,13,16,13.90
2012,06,03,13,17,13.90
2012,06,03,13,18,13.80
2012,06,03,13,19,13.80
2012,06,03,13,20,13.70
2012,06,03,13,21,13.70
2012,06,03,13,22,13.80
2012,06,03,13,23,13.80
2012,06,03,13,24,13.80
2012,06,03,13,25,13.80
2012,06,03,13,26,13.80
2012,06,03,13,27,13.90
2012,06,03,13,28,13.90
2012,06,03,13,29,13.80
2012,06,03,13,30,13.80
2012,06,03,13,31,13.80
2012,06,03,13,32,13.80
2012,06,03,13,33,13.80
2012,06,03,13,34,13.80
2012,06,03,13,35,13.80
2012,06,03,13,36,13.80
2012,06,03,13,37,13.80
2012,06,03,13,38,13.80
2012,06,03,13,39,13.90
2012,06,03,13,40,13.90
2012,06,03,13,41,14.00
2012,06,03,13,42,14.00
2012,06,03,13,43,14.10
2012,06,03,13,44,14.20
2012,06,03,13,45,14.20
2012,06,03,13,46,14.30
2012,06,03,13,47,14.30
2012,06,03,13,48,14.30
2012,06,03,13,49,14.30
2012,06,03,13,50,14.30
2012,06,03,13,51,14.30
2012,06,03,13,52,14.30
2012,06,03,13,53,14.30
2012,06,03,13,54,14.30
2012,06,03,13,55,14.30
2012,06,03,13,56,14.40
2012,06,03,13,57,14.50
2012,06,03,13,58,14.50
2012,06,03,13,59,14.60
2012,06,03,14,00,14.60
2012,06,03,14,01,14.60
2012,06,03,14,02,14.60
2012,06,03,14,03,14.60
2012,06,03,14,04,14.70
2012,06,03,14,05,14.80
2012,06,03,14,06,14.90
2012,06,03,14,07,15.00
2012,06,03,14,08,15.00
2012,06,03,14,09,15.00
2012,06,03,14,10,15.10
2012,06,03,14,11,15.00
2012,06,03,14,12,15.00
2012,06,03,14,13,15.10
2012,06,03,14,14,15.20
2012,06,03,14,15,15.40
2012,06,03,14,16,15.50
2012,06,03,14,17,15.50
2012,06,03,14,18,15.50
2012,06,03,14,19,15.50
2012,06,03,14,20,15.60
2012,06,03,14,21,15.60
2012,06,03,14,22,15.60
2012,06,03,14,23,15.60
2012,06,03,14,24,15.50
2012,06,03,14,25,15.40
2012,06,03,14,26,15.30
2012,06,03,14,27,15.30
2012,06,03,14,28,15.30
2012,06,03,14,29,15.30
2012,06,03,14,30,15.30
2012,06,03,14,31,15.50
2012,06,03,14,32,15.50
2012,06,03,14,33,15.60
2012,06,03,14,34,15.70
2012,06,03,14,35,15.80
2012,06,03,14,36,15.90
2012,06,03,14,37,16.00
2012,06,03,14,38,16.10
2012,06,03,14,39,16.00
2012,06,03,14,40,16.00
2012,06,03,14,41,16.10
2012,06,03,14,42,16.10
2012,06,03,14,43,16.10
2012,06,03,14,44,16.10
2012,06,03,14,45,16.10
2012,06,03,14,46,16.00
2012,06,03,14,47,15.90
2012,06,03,14,48,15.90
2012,06,03,14,49,15.70
2012,06,03,14,50,15.70
2012,06,03,14,51,15.60
2012,06,03,14,52,15.60
2012,06,03,14,53,15.50
2012,06,03,14,54,15.50
2012,06,03,14,55,15.60
2012,06,03,14,56,15.70
2012,06,03,14,57,15.70
2012,06,03,14,58,15.90
2012,06,03,14,59,16.10
2012,06,03,15,00,16.40
2012,06,03,15,01,16.60
2012,06,03,15,02,16.80
2012,06,03,15,03,16.80
2012,06,03,15,04,16.80
2012,06,03,15,05,16.70
2012,06,03,15,06,16.50
2012,06,03,15,07,16.40
2012,06,03,15,08,16.40
2012,06,03,15,09,16.30
2012,06,03,15,10,16.10
2012,06,03,15,11,15.70
2012,06,03,15,12,15.60
2012,06,03,15,13,15.60
2012,06,03,15,14,15.60
2012,06,03,15,15,15.60
2012,06,03,15,16,15.50
2012,06,03,15,17,15.50
2012,06,03,15,18,15.60
2012,06,03,15,19,15.60
2012,06,03,15,20,15.70
2012,06,03,15,21,15.80
2012,06,03,15,22,15.90
2012,06,03,15,23,16.00
2012,06,03,15,24,16.20
2012,06,03,15,25,16.30
2012,06,03,15,26,16.50
2012,06,03,15,27,16.60
2012,06,03,15,28,16.70
2012,06,03,15,29,16.70
2012,06,03,15,30,16.70
2012,06,03,15,31,16.70
2012,06,03,15,32,16.70
2012,06,03,15,33,16.70
2012,06,03,15,34,16.70
2012,06,03,15,35,16.70
2012,06,03,15,36,16.90
2012,06,03,15,37,16.90
2012,06,03,15,38,17.00
2012,06,03,15,39,17.10
2012,06,03,15,40,17.10
2012,06,03,15,41,17.20
2012,06,03,15,42,17.30
2012,06,03,15,43,17.40
2012,06,03,15,44,17.40
2012,06,03,15,45,17.40
2012,06,03,15,46,17.40
2012,06,03,15,47,17.50
2012,06,03,15,48,17.50
2012,06,03,15,49,17.60
2012,06,03,15,50,17.60
2012,06,03,15,51,17.50
2012,06,03,15,52,17.50
2012,06,03,15,53,17.60
2012,06,03,15,54,17.70
2012,06,03,15,55,17.70
2012,06,03,15,56,17.80
2012,06,03,15,57,17.80
2012,06,03,15,58,17.50
2012,06,03,15,59,17.30
2012,06,03,16,00,17.10
2012,06,03,16,01,17.10
2012,06,03,16,02,17.10
2012,06,03,16,03,17.10
2012,06,03,16,04,17.00
2012,06,03,16,05,16.80
2012,06,03,16,06,16.60
2012,06,03,16,07,16.40
2012,06,03,16,08,16.20
2012,06,03,16,09,15.90
2012,06,03,16,10,15.80
2012,06,03,16,11,15.70
2012,06,03,16,12,15.60
2012,06,03,16,13,15.40
2012,06,03,16,14,15.10
2012,06,03,16,15,14.90
2012,06,03,16,16,14.80
2012,06,03,16,17,14.70
2012,06,03,16,18,14.60
2012,06,03,16,19,14.50
2012,06,03,16,20,14.40
2012,06,03,16,21,14.40
2012,06,03,16,22,14.30
2012,06,03,16,23,14.10
2012,06,03,16,24,14.10
2012,06,03,16,25,14.00
2012,06,03,16,26,14.00
2012,06,03,16,27,13.90
2012,06,03,16,28,13.80
2012,06,03,16,29,13.70
2012,06,03,16,30,13.70
2012,06,03,16,31,13.70
2012,06,03,16,32,13.70
2012,06,03,16,33,13.70
2012,06,03,16,34,13.70
2012,06,03,16,35,13.70
2012,06,03,16,36,13.70
2012,06,03,16,37,13.70
2012,06,03,16,38,13.70
2012,06,03,16,39,13.70
2012,06,03,16,40,13.70
2012,06,03,16,41,13.70
2012,06,03,16,42,13.60
2012,06,03,16,43,13.60
2012,06,03,16,44,13.50
2012,06,03,16,45,13.50
2012,06,03,16,46,13.50
2012,06,03,16,47,13.60
2012,06,03,16,48,13.70
2012,06,03,16,49,13.70
2012,06,03,16,50,13.70
2012,06,03,16,51,13.70
2012,06,03,16,52,13.60
2012,06,03,16,53,13.50
2012,06,03,16,54,13.50
2012,06,03,16,55,13.50
2012,06,03,16,56,13.30
2012,06,03,16,57,13.20
2012,06,03,16,58,13.20
2012,06,03,16,59,13.30
2012,06,03,17,00,13.30
2012,06,03,17,01,13.30
2012,06,03,17,02,13.30
2012,06,03,17,03,13.30
2012,06,03,17,04,13.20
2012,06,03,17,05,13.10
2012,06,03,17,06,13.00
2012,06,03,17,07,13.00
2012,06,03,17,08,13.00
2012,06,03,17,09,12.90
2012,06,03,17,10,13.00
2012,06,03,17,11,12.90
2012,06,03,17,12,12.80
2012,06,03,17,13,12.80
2012,06,03,17,14,12.80
2012,06,03,17,15,12.80
2012,06,03,17,16,12.90
2012,06,03,17,17,12.90
2012,06,03,17,18,12.80
2012,06,03,17,19,12.80
2012,06,03,17,20,12.80
2012,06,03,17,21,12.80
2012,06,03,17,22,12.80
2012,06,03,17,23,12.80
2012,06,03,17,24,12.90
2012,06,03,17,25,12.90
2012,06,03,17,26,12.80
2012,06,03,17,27,12.90
2012,06,03,17,28,12.90
2012,06,03,17,29,12.90
2012,06,03,17,30,12.90
2012,06,03,17,31,12.90
2012,06,03,17,32,12.90